Starlink 5421

operational
NORAD ID: 54799 Int'l Des: 2022-175 Owner: SPXS Country: US Constellation: starlink
LEOCIRCULAR

Über Starlink 5421

Beschreibung wird geladen...

Live-Position

3D-Globus wird geladen...

Nächste Überflüge

Höhenverlauf

Altitude vs Time

uPlot chart will show altitude changes over time

Zweizeiliger Elementsatz

1 54799U 22175AT 25306.06457137 -.00002998 00000-0 -17049-3 0 9994
2 54799 53.2174 232.0159 0001658 92.9991 267.1191 15.08812202161003
Epoch: 2. Nov. 2025 • Age: 51 hours

Aktueller Status

Höhe 544.4 km
Geschwindigkeit 7.60 km/s
Subsatellitenpunkt 48.88°N, 166.19°E
Startdatum 17. Dez. 2022
Alter 2.8 years
Typ internet

Technische Details

Klassifizierung Payload
Masse 305.00 kg
Trockenmasse 290.00 kg
Gesamtmasse 305.00 kg
Länge 0.20 m
Durchmesser 2.80 m
Spannweite 9.00 m
Form Box + pan
Hersteller SPXS
Bus-Typ Starlink
Phasenstatus In Orbit
Besitzer/Staat SPXS/US

Große Konstellationen

Loading constellations...